Regional Weather Roundup
Issued by NWS

Home | Current Version | Previous Version | Text Only | Print | Product List | Glossary On
Versions: 1 2 3 4 5 6 7 8 9 10 11 12 13 14 15 16 17 18 19 20 21 22 23 24 25 26 27 28 29 30 31 32 33 34 35 36 37 38 39 40 41 42 43 44 45 46 47 48 49 50
000
ASUS46 KSTO 290115
RWRCA

NORTHERN AND CENTRAL CA REGIONAL WEATHER ROUNDUP
NATIONAL WEATHER SERVICE SACRAMENTO CA
600 PM PDT SUN AUG 28 2016

NOTE: FAIR INDICATES FEW OR NO CLOUDS BELOW 12,000 FEET WITH NO
SIGNIFICANT WEATHER AND/OR OBSTRUCTIONS TO VISIBILITY.

CAZ001-003-290200-
NORTHWEST AREA

CITY           SKY/WX    TMP DP  RH WIND       PRES   REMARKS
CRESCENT CITY  MOSUNNY   58  51  78 SW5       30.12R
UKIAH          SUNNY     87  46  24 SE9       29.98S
$$

CAZ006-505>513-290200-
BAY AREA

CITY           SKY/WX    TMP DP  RH WIND       PRES   REMARKS
SANTA ROSA     SUNNY     73  53  49 S12       30.02S
SAN RAFAEL     N/A       MM  MM  MM MISG
NAPA           SUNNY     73  56  54 S14       30.01S
CONCORD        SUNNY     80  50  34 W13       29.99F
OAKLAND CITY   N/A       MM  MM  MM MISG
OAKLAND        MOSUNNY   69  55  60 W16       30.05S
SAN FRAN CITY  N/A       64  MM  66 MISG
SAN FRAN ARPT  MOSUNNY   67  53  61 W21       30.05S
LIVERMORE      SUNNY     77  53  43 NW13      30.00S
HAYWARD        SUNNY     69  52  54 NW14      30.05R
REDWOOD CITY   N/A       74  MM  53 MISG
MOFFETT ARPT   SUNNY     70  56  61 N15       30.04S
SAN JOSE ARPT  SUNNY     72  55  55 NW16      30.03S
$$
CAZ034-037-514>518-290200-
CENTRAL COAST

CITY           SKY/WX    TMP DP  RH WIND       PRES   REMARKS
WATSONVILLE    SUNNY     64  56  75 SW9       30.06S
SALINAS        SUNNY     66  54  65 W15       30.05F
MONTEREY       SUNNY     64  53  67 W12       30.07F
SAN LUIS OBISP SUNNY     69  55  60 NW18      30.01R
SANTA MARIA    SUNNY     65  56  72 NW15      30.03S
$$
CAZ015-016-290200-
NORTHERN SACRAMENTO VALLEY

CITY           SKY/WX    TMP DP  RH WIND       PRES   REMARKS
REDDING        SUNNY     93  38  14 S10       29.95S
RED BLUFF      SUNNY     92  36  14 SE10      29.96S
OROVILLE       SUNNY     90  48  23 S5        29.97F
$$
CAZ016>018-290200-
SOUTHERN SACRAMENTO VALLEY

CITY           SKY/WX    TMP DP  RH WIND       PRES   REMARKS
AUBURN         SUNNY     86  46  25 W5        30.05F
BEALE AFB      SUNNY     89  47  23 S7        29.95S
LINCOLN        FAIR      90  41  18 S3        29.96F
MARYSVILLE     SUNNY     89  39  17 SW8       29.96F
SAC INTL ARPT  SUNNY     89  48  24 S13       29.95F
MATHER AIRPORT NOT AVBL
DOWNTOWN SAC   N/A       91  MM  MM MISG
SAC EXEC ARPT  SUNNY     87  47  24 SW8       29.97S
VACAVILLE      SUNNY     86  42  21 S12       29.98S
TRAVIS AFB     SUNNY     81  52  36 SW17      29.95F
$$
CAZ019>021-290200-
SAN JOAQUIN VALLEY

CITY           SKY/WX    TMP DP  RH WIND       PRES   REMARKS
STOCKTON       SUNNY     87  55  33 NW7       29.96F
MODESTO        SUNNY     89  54  30 NW10      29.95F
MERCED         SUNNY     88  56  33 N12       29.95F
LEMOORE        SUNNY     92  54  27 N10       29.95S HX  90
FRESNO         SUNNY     91  53  27 NW10      29.95F
HANFORD        SUNNY     92  53  26 N7        29.95S
PORTERVILLE    SUNNY     92  56  29 NW8       29.95S HX  90
BAKERSFIELD    SUNNY     92  53  26 NW10      29.94S
$$
CAZ011-012-071-290200-
NORTHERN MOUNTAINS

CITY           SKY/WX    TMP DP  RH WIND       PRES   REMARKS
YREKA          SUNNY     91  24   9 S13       30.01S
MOUNT SHASTA   SUNNY     81  30  15 VRB3      30.12S
ALTURAS        SUNNY     86  27  11 W17       30.13R
$$
CAZ011-012-071-290200-
SIERRA NEVADA MTNS

CITY           SKY/WX    TMP DP  RH WIND       PRES   REMARKS
BLUE CANYON    SUNNY     74  35  24 VRB5      30.28S
TRUCKEE        SUNNY     79  25  13 W12G17    30.28S
TAHOE VLY ARPT SUNNY     76  29  17 S8        30.30R
MAMMOTH LAKES  FAIR      79  27  14 SW13      30.32S
$$




USA.gov is the U.S. government's official web portal to all federal, state and local government web resources and services.